NOAA 16 DEB

Satellite information

Favourite Embed

Satellite Type and Status

DEBRISIN ORBIT

Key statistics

Satellite NOAA 16 DEB at a glance.

Uptime

9163

Days in orbit

Revolutions

≈ 14.5

Per day

Orbit

SSO

Sun Synchronous Orbit

Inclination

99.0

Latest

Satellite identification and parameters

Extended collection of information and parameters for NOAA 16 DEB.

Object identification

Identified? True

Debris? True

Object name: NOAA 16 DEB

International designator: 2000-055NA

Object number (NORAD): 41526

Object ID (CCSDS): 41526

Country: UNITED STATES OF AMERICA (US)

Current information (Y/N): Y

RCS size: SMALL

Orbital parameters

Period: 99.568 minutes

Inclination: 99.0087 deg

SMA: 7116.052 km

Apoapsis: 751.661 km

Periapsis: 724.172 km

RAAN: 119.145 deg

Eccentricy: 0.0019315

Argument of periapsis: 183.4292 deg

Mean anomaly: 176.6769 deg

Mean motion: 14.4625249 rev/day

Mean motion (dot): 0.00011005 rev/day2

B* drag term: 0.0030752467 1/REarth

Two-line elements (TLE)

Creation date: Oct. 23, 2025, 2:46 a.m.

Reference frame: TEME

Reference center: EARTH

Epoch: Oct. 22, 2025, 5:28 p.m. UTC

TLE line 0: 0 NOAA 16 DEB

TLE line 1: 1 41526U 00055NA 25295.72837436 .00011005 00000-0 30752-2 0 9997

TLE line 2: 2 41526 99.0087 119.1450 0019315 183.4292 176.6769 14.46252490498260

Live tracking on map

Real-time ground track for satellite NOAA 16 DEB.

In-orbit conjunctions

A list of the most updated potential collisions computed for object NOAA 16 DEB.

Target Orbit TCA Probability of collision Miss distance Type
CZ-2D DEB SSO 2025-05-27 10:46:06 0.0001016021 919.0 (m) DEBRIS
CZ-6A DEB LEO 2025-02-08 05:27:05 0.0001065073 778.0 (m) DEBRIS
COSMOS 2251 DEB LEO 2025-01-08 10:06:04 0.0001381042 87.0 (m) DEBRIS
COSMOS 2251 DEB LEO 2024-11-09 13:13:04 0.0002085307 331.0 (m) DEBRIS
FENGYUN 1C DEB SSO 2024-06-24 13:06:11 0.0002546628 81.0 (m) DEBRIS

Associated space launch

The NOAA K, L and M POES satellites begin the fifth generation of improved environmental monitoring in support of NOAA missions. The instrument payload has significant improvements and additions/deletions. The instrument changes have effected the spacecraft subsystems and data formats.

NOAA 16 DEB was lifted into orbit during the mission ‘Titan II SLV | NOAA 16’, on board a Titan II SLV space rocket.

The launch took place on Sept. 21, 2000, 10:22 a.m. from Space Launch Complex 4W.

For more information about the launch, click the button.

Launch to space Titan II SLV | NOAA 16
Titan II SLV | NOAA 16

Agency: N/A

Status: Launch Successful

Launch date: Sept. 21, 2000, 10:22 a.m. UTC

Rocket: Titan II SLV

Launch pad: Space Launch Complex 4W

Location: Vandenberg SFB, CA, USA

...

Latest news about this satellite

There are no fresh news available about this satellite. Check back as we update our databases every day.


Newsletter sign-up

Weekly statistics, charts and insights to help you stay on top of the space industry.